Theta_e
313 310 310 310 310 312 312 312 312 313 313 314 313 313 313 314 315 314 315 316 317 318 318 320 320 323 323 324 324 324 323 339 345 346 345 345 345 345 341 335 344 342 340 343
311 310 312 312 312 313 313 313 313 312 313 314 312 312 313 313 313 316 315 317 318 318 320 320 321 322 324 324 323 323 322 322 322 334 340 340 337 338 345 345 343 344 344 345
311 312 314 314 313 314 313 313 312 313 313 313 312 312 312 313 314 316 317 318 318 318 319 320 320 321 323 323 322 322 321 321 320 320 329 339 340 338 337 342 345 343 341 340
311 313 314 313 313 314 313 317 317 315 313 313 313 313 312 312 313 314 315 315 316 316 317 319 321 322 323 322 322 322 321 320 318 317 317 326 339 341 339 335 331 333 337 336
313 313 312 313 314 317 317 318 317 316 313 311 312 310 313 313 313 313 312 315 317 317 318 317 320 321 322 322 321 320 319 319 319 318 315 316 322 336 336 339 336 336 334 331
313 314 313 314 317 317 317 317 315 315 309 312 312 311 313 312 313 313 315 317 317 318 318 317 320 322 321 321 320 320 319 319 319 318 318 317 316 321 330 333 336 334 335 326
313 313 313 317 318 316 315 315 317 316 317 317 314 312 312 312 313 314 314 317 317 318 317 317 321 321 321 320 318 318 318 317 316 316 316 315 314 316 326 328 327 329 329 327
314 316 316 318 317 317 317 314 313 318 317 316 316 318 314 314 315 315 317 318 317 317 316 319 321 320 318 318 318 317 317 318 318 316 319 317 316 316 319 319 320 321 325 330
314 316 315 317 316 315 318 318 317 318 317 319 317 316 315 315 314 317 317 317 316 314 317 319 318 318 318 318 318 318 317 318 320 318 318 320 321 320 319 319 321 321 320 319
315 314 315 316 316 315 316 315 316 315 313 319 318 318 317 316 315 317 315 314 316 315 318 318 318 318 318 318 318 318 317 318 318 318 321 320 320 320 320 325 327 328 328 327
313 314 315 313 314 313 312 315 315 313 313 312 317 315 317 316 316 316 316 317 316 316 315 317 317 317 317 318 318 318 318 318 318 318 318 319 319 319 320 322 323 325 328 327
314 312 314 314 313 313 314 314 313 313 316 319 317 317 314 314 315 314 315 317 317 316 316 316 315 315 316 316 317 317 317 318 317 317 319 318 319 320 319 319 318 319 320 320
313 311 310 309 308 310 313 314 315 314 311 313 310 311 312 313 311 313 314 316 316 316 316 315 316 315 316 316 317 317 317 317 317 318 319 320 318 320 320 320 319 319 318 318
311 308 308 309 309 308 312 313 313 313 310 311 314 313 312 313 313 314 313 314 316 317 316 316 315 315 316 317 316 317 317 317 317 319 317 316 316 317 319 317 317 317 316 316
307 309 310 310 311 313 312 312 311 312 313 313 312 312 315 314 312 313 314 316 315 315 315 316 315 315 316 317 316 316 316 317 317 316 316 316 316 316 316 316 316 316 315 313
306 308 310 311 311 310 312 311 310 311 312 312 313 314 313 314 314 314 314 316 316 316 316 316 316 315 316 316 317 316 316 316 316 315 315 315 315 315 315 315 315 315 315 314
306 306 308 309 311 311 311 313 315 315 315 314 314 314 313 313 314 314 314 314 313 313 314 314 315 315 315 316 316 316 316 317 316 314 315 315 315 315 315 315 315 314 314 314
306 306 305 309 309 313 310 315 316 316 316 315 314 313 313 313 313 312 313 313 313 312 312 312 313 313 313 313 312 312 314 315 315 313 312 313 313 313 312 312 312 312 311 311
305 305 306 306 304 310 313 315 314 314 315 312 312 311 311 310 310 310 314 310 309 309 309 310 310 310 311 311 312 312 312 312 312 311 312 312 312 311 311 311 310 310 310 310
310 308 308 304 312 310 315 314 311 312 315 310 309 308 307 307 308 308 310 310 309 308 308 308 308 309 309 309 309 310 310 310 311 311 312 312 311 311 311 310 310 310 309 308
314 314 313 310 309 310 312 311 309 312 310 309 308 307 306 306 306 306 307 307 306 306 307 307 308 308 307 308 308 308 308 308 309 311 312 312 311 311 311 310 310 309 309 309
310 313 314 314 314 315 308 308 310 308 307 307 306 305 305 306 306 306 306 306 305 305 304 304 305 304 306 306 305 305 306 306 307 307 309 310 309 309 309 309 309 309 309 310
313 313 312 310 306 308 307 306 307 306 306 305 304 305 305 306 305 305 305 304 304 303 303 303 303 305 304 304 305 305 306 306 307 308 308 307 307 308 308 309 309 310 310 310
310 309 307 304 309 306 306 306 306 305 305 304 305 304 305 302 302 302 301 300 301 301 302 302 303 302 302 302 304 305 306 307 308 308 308 308 309 309 309 309 311 311 311 311
308 307 305 305 305 305 306 306 305 305 305 305 305 304 304 302 302 301 300 300 301 300 301 300 301 301 301 302 305 304 304 306 307 307 307 307 307 308 309 310 312 313 313 313
307 307 308 308 306 305 305 304 304 304 305 305 303 304 302 301 301 301 300 299 298 299 298 299 300 300 301 302 302 303 304 305 306 307 307 307 308 309 311 312 312 313 314 315
Wind_Speed
6 2 6 12 10 13 8 12 16 16 9 3 6 8 13 13 18 22 30 32 30 22 20 24 28 35 36 37 37 36 26 30 33 37 38 35 32 32 33 33 32 36 27 27
4 6 14 10 11 11 13 16 16 9 6 4 9 11 15 9 10 16 20 15 13 9 17 22 23 23 29 36 35 34 31 27 27 33 34 34 29 31 37 40 36 30 24 28
8 11 10 10 12 13 11 7 7 11 6 4 6 10 11 15 9 22 18 15 14 15 20 24 25 28 30 35 37 35 31 28 25 24 28 31 31 29 29 39 38 38 35 30
8 15 11 10 7 4 5 6 13 13 7 11 6 13 8 8 8 8 17 18 20 22 20 28 31 36 38 36 33 29 24 20 21 23 23 27 28 32 31 29 35 27 25 24
12 6 8 7 10 1 6 3 4 7 12 4 6 2 11 4 10 10 10 20 20 25 29 32 37 37 36 32 29 25 22 20 21 22 24 23 21 27 27 29 32 36 37 38
12 16 6 9 2 5 3 1 3 2 2 7 14 5 14 10 11 6 7 25 32 34 32 29 42 41 34 28 24 21 18 17 16 18 19 22 25 24 27 27 30 35 31 26
9 11 10 2 1 5 9 6 5 4 3 13 12 7 16 11 9 13 14 20 31 39 34 28 40 39 33 26 19 16 13 11 13 18 20 20 23 27 27 25 23 25 27 29
5 4 1 3 4 4 3 5 4 6 4 9 6 8 18 5 13 23 16 15 29 35 30 34 50 41 31 22 20 16 14 12 10 9 8 12 15 19 20 23 26 26 28 27
1 2 3 1 5 6 3 5 4 3 3 4 5 8 15 19 13 8 11 7 30 3 33 41 35 29 24 24 21 18 17 15 14 13 14 10 8 8 11 16 18 19 21 22
2 4 3 3 3 3 3 2 1 1 3 6 5 5 8 6 7 8 8 11 15 13 21 32 33 27 23 20 20 19 19 20 19 16 15 15 13 12 11 11 11 12 12 13
4 4 4 2 1 2 1 0 3 1 3 3 5 5 5 2 5 3 3 5 7 13 8 17 19 19 19 19 20 21 26 26 22 18 15 18 18 15 15 14 13 13 13 14
4 5 3 7 6 4 3 4 5 3 3 4 1 7 14 9 9 7 2 10 16 4 1 11 9 11 20 23 25 25 26 28 23 22 22 18 19 20 20 18 17 17 17 19
6 1 1 7 5 3 3 5 6 2 2 6 3 5 4 8 11 19 9 11 15 22 20 21 17 15 14 22 25 25 26 27 25 24 25 25 21 24 24 21 19 21 21 22
6 3 7 6 7 5 5 6 9 8 4 4 8 15 13 12 12 13 19 13 23 30 24 33 20 18 12 15 18 23 24 24 25 27 25 22 21 23 22 21 22 23 25 29
3 4 4 6 8 10 12 12 12 10 14 8 15 10 2 7 7 7 16 18 12 9 8 21 26 32 19 13 14 10 10 17 24 25 26 26 26 27 27 28 31 32 32 30
3 3 2 4 6 7 11 13 16 17 17 13 7 5 7 11 13 9 15 13 7 6 4 7 2 9 19 18 20 19 23 11 9 24 27 25 27 27 27 28 30 31 33 33
2 2 3 4 3 7 7 3 6 7 7 4 3 6 6 5 6 10 10 5 10 13 9 5 6 7 7 8 14 16 18 21 18 20 17 20 23 26 27 27 29 32 34 37
5 2 3 4 3 2 4 7 3 7 9 6 4 3 7 11 12 17 11 0 8 13 19 21 17 15 15 16 18 19 21 23 26 28 30 28 30 31 32 34 36 37 39 41
8 4 1 1 2 6 4 7 7 7 4 6 5 7 8 14 20 15 9 9 18 23 26 26 25 27 28 25 25 21 21 23 27 32 34 35 36 36 36 38 38 42 44 45
5 4 4 2 3 5 0 7 16 7 6 5 5 7 10 15 10 11 14 26 37 37 29 29 28 30 33 35 34 36 35 34 35 35 37 39 40 40 39 39 40 40 41 44
1 1 4 4 4 6 4 9 19 2 5 17 18 18 16 13 17 30 32 34 31 32 32 34 37 39 41 42 43 46 47 47 39 33 36 37 37 38 38 40 42 43 44 44
4 2 2 2 3 5 6 3 1 4 19 21 23 25 29 30 33 33 33 29 33 39 42 41 41 45 42 42 40 42 44 44 38 42 40 37 38 39 39 40 42 44 41 39
2 2 2 5 5 2 2 11 6 19 18 25 27 31 33 36 37 33 33 42 40 40 42 37 40 34 35 35 34 38 41 40 41 42 42 39 39 39 38 37 39 38 38 38
1 4 1 5 0 3 25 14 18 23 26 31 31 35 31 40 43 40 42 41 44 38 39 35 37 37 36 36 34 36 32 29 29 30 32 31 30 33 35 35 34 34 34 35
2 4 3 5 7 20 10 19 26 34 37 34 32 32 34 43 42 40 39 40 38 35 38 34 35 35 34 32 30 30 32 34 35 35 36 37 37 36 35 34 32 31 32 34
2 2 2 4 15 13 24 31 37 37 37 32 33 38 41 42 45 40 40 39 40 36 37 36 35 35 35 33 35 36 28 28 27 30 33 34 34 34 32 32 33 32 31 29
Wind_Direction
276 76 242 240 220 237 246 260 265 274 263 273 246 263 285 282 292 270 240 235 251 258 257 227 229 225 216 217 216 219 209 201 204 207 216 222 229 225 227 237 227 228 224 224
351 249 249 242 253 242 249 252 260 263 252 252 289 278 284 285 264 259 233 215 217 250 202 201 206 202 208 213 213 217 219 216 214 218 220 225 232 238 221 218 216 212 214 232
206 239 257 252 256 260 260 241 262 263 265 271 328 294 292 291 267 273 235 241 251 240 211 202 201 200 207 211 213 216 220 221 224 228 231 231 232 239 234 227 222 228 229 243
237 252 255 281 287 284 295 352 7 327 298 277 166 271 276 273 295 286 281 289 271 263 249 221 217 198 202 205 206 211 212 213 225 231 236 241 239 238 237 237 232 225 211 225
233 225 251 270 269 84 253 347 2 344 326 290 249 204 268 330 293 279 287 297 295 296 294 249 220 214 199 190 194 201 207 215 226 239 237 243 246 240 241 246 249 235 237 243
246 251 201 245 269 186 275 335 358 7 61 277 294 207 268 254 258 266 264 289 297 299 293 254 214 197 179 177 187 198 210 224 234 239 245 250 249 247 245 245 246 242 237 243
265 265 266 104 32 12 48 46 333 331 290 261 260 262 250 270 264 243 260 299 304 289 282 227 191 171 170 178 195 202 213 217 230 241 249 245 240 239 239 237 236 237 241 244
201 303 76 134 124 150 124 140 180 242 254 283 10 252 255 284 296 264 265 283 334 290 218 191 175 174 178 182 184 187 187 196 203 214 248 252 244 237 241 246 248 246 244 241
44 237 6 287 160 138 144 179 172 223 324 286 234 275 276 273 283 264 234 6 347 218 167 166 171 178 182 182 182 186 190 202 210 229 254 242 245 246 257 253 249 246 243 245
263 309 310 58 101 258 152 153 208 285 264 258 268 261 254 359 355 13 352 39 16 327 168 173 179 187 187 186 186 189 196 208 221 236 230 241 242 254 259 257 256 258 255 253
159 157 259 47 272 173 248 99 30 204 184 225 269 267 325 323 280 73 32 357 1 338 159 158 160 167 172 184 194 201 205 210 224 225 235 237 239 251 251 256 263 268 271 279
188 154 201 225 252 189 141 167 162 156 259 230 231 241 258 246 289 301 343 181 229 326 18 342 341 222 188 197 200 208 213 217 230 226 224 228 237 243 247 248 258 261 268 274
183 190 27 336 352 328 224 195 184 153 82 213 173 263 279 314 302 287 238 214 210 214 283 307 309 338 240 206 206 212 220 227 227 223 228 230 223 239 247 245 249 256 268 274
132 157 168 215 222 196 250 243 201 181 179 224 223 273 300 318 335 330 313 271 210 202 216 262 312 302 294 259 226 220 214 212 215 215 218 225 230 236 230 246 256 264 269 276
83 211 223 237 251 271 282 281 276 234 240 224 270 253 8 336 292 329 356 339 296 274 247 243 258 284 294 273 212 219 226 204 207 219 232 237 242 240 247 257 265 270 277 283
6 275 320 234 250 280 292 289 279 270 265 243 246 267 23 307 305 335 354 338 353 37 184 193 135 259 260 259 239 225 233 236 257 246 235 233 237 240 244 247 253 260 264 270
211 155 10 269 310 308 299 307 280 291 56 344 44 6 327 278 309 317 339 351 360 2 341 337 301 307 330 259 221 215 216 218 239 271 251 226 230 237 244 252 257 261 267 272
182 163 156 268 2 261 214 12 310 351 95 83 56 303 287 303 313 317 285 273 341 332 321 315 310 292 298 293 287 283 259 254 256 266 267 266 263 261 262 266 270 275 278 278
190 139 257 161 196 287 325 9 337 335 275 36 13 351 355 339 316 290 228 305 317 315 308 299 293 290 286 279 279 277 272 266 263 262 261 265 267 268 269 269 273 277 280 279
78 110 154 119 203 242 90 332 319 299 249 35 353 327 320 332 304 298 289 289 293 298 297 290 289 284 279 280 278 275 272 268 267 265 259 263 268 271 271 276 279 280 283 279
339 332 213 213 225 283 355 344 321 227 289 340 336 309 297 295 279 286 289 289 293 298 296 289 283 277 275 277 275 272 271 269 269 271 266 262 256 258 264 272 275 278 277 274
169 227 228 230 221 247 26 340 43 302 323 309 307 303 297 294 290 287 282 282 293 291 288 284 279 278 274 276 281 277 272 272 268 261 261 258 261 262 267 270 271 271 267 265
78 203 233 195 230 192 296 289 253 324 303 303 302 302 302 296 295 293 292 293 289 285 286 279 283 267 273 270 270 265 265 265 261 262 264 266 267 266 265 263 266 261 260 259
75 16 95 12 276 340 318 306 311 317 309 311 308 306 304 314 304 293 296 296 286 283 277 280 273 274 274 271 265 262 267 269 263 257 258 260 262 263 262 264 260 259 254 253
236 5 336 267 292 323 287 303 308 310 309 301 300 308 302 306 297 288 300 297 286 293 277 281 274 272 271 269 258 256 265 259 257 260 264 265 264 262 264 262 258 257 256 252
208 230 258 269 301 286 284 301 310 308 304 297 309 303 305 310 304 288 298 289 295 285 285 282 275 271 269 267 264 269 261 257 250 250 256 258 257 259 261 263 262 257 257 253